When you browse on this site, cookies collect data to enhance your experience and personalize the content and advertising you see.
Visit our Privacy Policy to learn more. By continuing to use the site, you agree to this use of cookies and data.
  • Em Portugal
  • Lista de países
  • Para 7 dias
  • Temperatura da água
  • Mapas de satélite
  • Mapa do tempo
  • Widgets de tempo
  • user-avatar
    Iniciar Sessão

    Previsão horária em Ganja

    Hoje, 20 Julho, Sábado

    Tempo Temperatura Precipitação Vento Pressão Humidade
    00:00 +28°C° 0 mm 2 m/s 725 mmHg 58%
    01:00 +27°C° 0 mm 2 m/s 725 mmHg 61%
    02:00 +27°C° 0 mm 2 m/s 725 mmHg 64%
    03:00 +24°C° 0 mm 0 m/s 724 mmHg 67%
    04:00 +26°C° 0 mm 1 m/s 725 mmHg 66%
    05:00 +27°C° 0 mm 1 m/s 726 mmHg 65%
    06:00 +27°C° 0 mm 1 m/s 726 mmHg 65%
    07:00 +28°C° 0 mm 2 m/s 726 mmHg 62%
    08:00 +29°C° 0 mm 2 m/s 726 mmHg 59%
    09:00 +30°C° 0 mm 2 m/s 726 mmHg 56%
    10:00 +31°C° 0 mm 2 m/s 726 mmHg 52%
    11:00 +33°C° 0 mm 3 m/s 726 mmHg 48%
    12:00 +35°C° 0 mm 3 m/s 726 mmHg 44%
    13:00 +36°C° 0 mm 4 m/s 726 mmHg 40%
    14:00 +37°C° 0 mm 4 m/s 725 mmHg 36%
    15:00 +39°C° 0 mm 5 m/s 725 mmHg 32%
    16:00 +37°C° 0 mm 5 m/s 725 mmHg 33%
    17:00 +37°C° 0 mm 5 m/s 725 mmHg 34%
    18:00 +36°C° 0 mm 5 m/s 726 mmHg 35%
    19:00 +35°C° 0 mm 5 m/s 726 mmHg 37%
    20:00 +33°C° 0 mm 5 m/s 726 mmHg 39%
    21:00 +32°C° 0 mm 5 m/s 726 mmHg 41%
    22:00 +30°C° 0 mm 5 m/s 727 mmHg 42%
    23:00 +30°C° 0 mm 4 m/s 727 mmHg 43%

    Amanhã, 21 Julho, Domingo

    Tempo Temperatura Precipitação Vento Pressão Humidade
    00:00 +29°C° 0 mm 4 m/s 727 mmHg 43%
    01:00 +29°C° 0 mm 4 m/s 727 mmHg 44%
    02:00 +28°C° 0 mm 4 m/s 727 mmHg 46%
    03:00 +27°C° 0 mm 4 m/s 727 mmHg 47%
    04:00 +27°C° 0 mm 3 m/s 727 mmHg 47%
    05:00 +28°C° 0 mm 3 m/s 727 mmHg 48%
    06:00 +28°C° 0 mm 3 m/s 727 mmHg 48%
    07:00 +29°C° 0 mm 4 m/s 726 mmHg 45%
    08:00 +32°C° 0 mm 4 m/s 726 mmHg 41%
    09:00 +34°C° 0 mm 5 m/s 726 mmHg 37%
    10:00 +35°C° 0 mm 5 m/s 726 mmHg 35%
    11:00 +36°C° 0 mm 6 m/s 726 mmHg 33%
    12:00 +38°C° 0 mm 7 m/s 726 mmHg 31%
    13:00 +38°C° 0 mm 7 m/s 725 mmHg 30%
    14:00 +39°C° 0 mm 6 m/s 724 mmHg 29%
    15:00 +39°C° 0 mm 6 m/s 724 mmHg 29%
    16:00 +39°C° 0 mm 6 m/s 724 mmHg 30%
    17:00 +37°C° 0 mm 5 m/s 724 mmHg 32%
    18:00 +37°C° 0 mm 5 m/s 724 mmHg 33%
    19:00 +35°C° 0 mm 4 m/s 724 mmHg 36%
    20:00 +34°C° 0 mm 4 m/s 724 mmHg 38%
    21:00 +32°C° 0 mm 4 m/s 724 mmHg 40%
    22:00 +30°C° 0 mm 4 m/s 724 mmHg 43%
    23:00 +30°C° 0 mm 3 m/s 724 mmHg 45%

    Depois de amanhã, 22 Julho, Segunda-feira

    Tempo Temperatura Precipitação Vento Pressão Humidade
    00:00 +29°C° 0 mm 3 m/s 724 mmHg 48%
    01:00 +28°C° 0 mm 3 m/s 724 mmHg 50%
    02:00 +27°C° 0 mm 2 m/s 723 mmHg 53%
    03:00 +27°C° 0 mm 1 m/s 723 mmHg 55%
    04:00 +27°C° 0 mm 1 m/s 723 mmHg 56%
    05:00 +27°C° 0 mm 1 m/s 723 mmHg 57%
    06:00 +27°C° 0 mm 1 m/s 723 mmHg 59%
    07:00 +29°C° 0 mm 1 m/s 723 mmHg 55%
    08:00 +30°C° 0 mm 2 m/s 723 mmHg 52%
    09:00 +31°C° 0 mm 2 m/s 722 mmHg 48%
    10:00 +32°C° 0 mm 2 m/s 722 mmHg 45%
    11:00 +35°C° 0 mm 2 m/s 722 mmHg 42%
    12:00 +36°C° 0 mm 2 m/s 722 mmHg 39%
    13:00 +37°C° 0 mm 3 m/s 721 mmHg 37%
    14:00 +38°C° 0 mm 3 m/s 721 mmHg 35%
    15:00 +40°C° 0 mm 4 m/s 721 mmHg 33%
    16:00 +38°C° 0 mm 4 m/s 721 mmHg 35%
    17:00 +38°C° 0 mm 4 m/s 721 mmHg 36%
    18:00 +37°C° 0 mm 4 m/s 721 mmHg 38%
    19:00 +36°C° 0 mm 4 m/s 721 mmHg 41%
    20:00 +34°C° 0 mm 5 m/s 722 mmHg 44%
    21:00 +32°C° 0 mm 5 m/s 722 mmHg 47%
    22:00 +30°C° 0 mm 4 m/s 722 mmHg 51%
    23:00 +29°C° 0 mm 3 m/s 722 mmHg 54%

    23 Julho, Terça-feira

    Tempo Temperatura Precipitação Vento Pressão Humidade
    00:00 +28°C° 0 mm 3 m/s 722 mmHg 58%
    01:00 +28°C° 0 mm 2 m/s 722 mmHg 61%
    02:00 +27°C° 0 mm 2 m/s 722 mmHg 64%
    03:00 +26°C° 0 mm 2 m/s 722 mmHg 67%
    04:00 +26°C° 0 mm 2 m/s 723 mmHg 66%
    05:00 +27°C° 0 mm 1 m/s 723 mmHg 65%
    06:00 +27°C° 0 mm 1 m/s 723 mmHg 64%
    07:00 +28°C° 0 mm 2 m/s 723 mmHg 60%
    08:00 +29°C° 0 mm 2 m/s 723 mmHg 56%
    09:00 +31°C° 0 mm 2 m/s 723 mmHg 53%
    10:00 +33°C° 0 mm 3 m/s 722 mmHg 48%
    11:00 +34°C° 0 mm 3 m/s 722 mmHg 44%
    12:00 +36°C° 0 mm 3 m/s 722 mmHg 39%
    13:00 +36°C° 0 mm 4 m/s 721 mmHg 38%
    14:00 +37°C° 0 mm 5 m/s 721 mmHg 36%
    15:00 +37°C° 0 mm 5 m/s 720 mmHg 34%
    16:00 +37°C° 0 mm 5 m/s 721 mmHg 36%
    17:00 +36°C° 0 mm 5 m/s 721 mmHg 38%
    18:00 +36°C° 0 mm 5 m/s 721 mmHg 40%
    19:00 +34°C° 0 mm 4 m/s 721 mmHg 43%
    20:00 +33°C° 0 mm 3 m/s 721 mmHg 46%
    21:00 +31°C° 0 mm 3 m/s 722 mmHg 49%
    22:00 +30°C° 0 mm 3 m/s 722 mmHg 50%
    23:00 +29°C° 0 mm 3 m/s 722 mmHg 52%

    24 Julho, Quarta-feira

    Tempo Temperatura Precipitação Vento Pressão Humidade
    00:00 +29°C° 0 mm 3 m/s 722 mmHg 53%
    01:00 +28°C° 0 mm 3 m/s 722 mmHg 54%
    02:00 +28°C° 0 mm 2 m/s 722 mmHg 55%
    03:00 +27°C° 0 mm 2 m/s 721 mmHg 56%
    04:00 +27°C° 0 mm 2 m/s 722 mmHg 56%
    05:00 +27°C° 0 mm 2 m/s 722 mmHg 57%
    06:00 +27°C° 0 mm 2 m/s 722 mmHg 57%
    07:00 +29°C° 0 mm 2 m/s 722 mmHg 54%
    08:00 +30°C° 0 mm 2 m/s 722 mmHg 50%
    09:00 +31°C° 0 mm 2 m/s 722 mmHg 46%
    10:00 +33°C° 0 mm 3 m/s 721 mmHg 42%
    11:00 +35°C° 0 mm 3 m/s 721 mmHg 38%
    12:00 +36°C° 0 mm 3 m/s 721 mmHg 34%
    13:00 +37°C° 0 mm 3 m/s 720 mmHg 33%
    14:00 +38°C° 0 mm 3 m/s 720 mmHg 31%
    15:00 +38°C° 0 mm 3 m/s 720 mmHg 30%
    16:00 +38°C° 0 mm 3 m/s 720 mmHg 31%
    17:00 +37°C° 0 mm 3 m/s 720 mmHg 33%
    18:00 +37°C° 0 mm 3 m/s 720 mmHg 34%
    19:00 +35°C° 0 mm 3 m/s 720 mmHg 37%
    20:00 +34°C° 0 mm 3 m/s 721 mmHg 41%
    21:00 +31°C° 0 mm 3 m/s 721 mmHg 44%
    22:00 +30°C° 0 mm 3 m/s 721 mmHg 46%
    23:00 +29°C° 0 mm 3 m/s 721 mmHg 47%

    25 Julho, Quinta-feira

    Tempo Temperatura Precipitação Vento Pressão Humidade
    00:00 +28°C° 0 mm 4 m/s 721 mmHg 49%
    01:00 +28°C° 0 mm 3 m/s 721 mmHg 51%
    02:00 +27°C° 0 mm 2 m/s 721 mmHg 53%
    03:00 +26°C° 0 mm 1 m/s 721 mmHg 55%
    04:00 +27°C° 0 mm 1 m/s 721 mmHg 56%
    05:00 +27°C° 0 mm 1 m/s 721 mmHg 57%
    06:00 +27°C° 0 mm 1 m/s 721 mmHg 59%
    07:00 +28°C° 0 mm 2 m/s 721 mmHg 56%
    08:00 +30°C° 0 mm 2 m/s 721 mmHg 53%
    09:00 +31°C° 0 mm 2 m/s 721 mmHg 50%
    10:00 +32°C° 0 mm 2 m/s 721 mmHg 47%
    11:00 +35°C° 0 mm 2 m/s 720 mmHg 44%
    12:00 +36°C° 0 mm 2 m/s 720 mmHg 41%
    13:00 +37°C° 0 mm 3 m/s 719 mmHg 38%
    14:00 +38°C° 0 mm 3 m/s 719 mmHg 35%
    15:00 +39°C° 0 mm 3 m/s 718 mmHg 32%
    16:00 +38°C° 0 mm 3 m/s 718 mmHg 32%
    17:00 +38°C° 0 mm 3 m/s 718 mmHg 33%
    18:00 +38°C° 0 mm 3 m/s 718 mmHg 33%
    19:00 +36°C° 0 mm 3 m/s 719 mmHg 36%
    20:00 +34°C° 0 mm 4 m/s 719 mmHg 38%
    21:00 +33°C° 0 mm 4 m/s 720 mmHg 41%
    22:00 +30°C° 0 mm 3 m/s 720 mmHg 47%
    23:00 +29°C° 0 mm 3 m/s 720 mmHg 53%
    Mostrar mais